DB0LC-2 Weather Reports


Display with metric or nautical units.
time (UTC)temp
F
wind
direction
speed
MPH
gust
MPH
rain 1hr
in
rain 24hr
in
rain mn
in
humidity
%
barometer
mb
20260906002058 68 0 0.0 0.0 0.00 0.00 0.00 61 922.6
20260906001040 68 0 0.0 0.0 0.00 0.00 0.00 60 922.7
20260906000040 69 0 0.0 0.0 0.00 0.00 0.00 59 922.6
20260905235019 68 0 0.0 0.0 0.00 0.00 0.00 61 922.7
20260905234004 68 0 0.0 0.0 0.00 0.00 0.00 59 922.8
20260905232939 69 0 0.0 0.0 0.00 0.00 0.00 60 922.9
20260905231914 68 0 0.0 0.0 0.00 0.00 0.00 60 922.9
20260905225902 68 0 0.0 0.0 0.00 0.00 0.00 60 923.0
20260905224854 68 0 0.0 0.0 0.00 0.00 0.00 60 922.9
20260905223826 68 0 0.0 0.0 0.00 0.00 0.00 56 923.0
20260905222750 68 0 0.0 0.0 0.00 0.00 0.00 60 922.9
20260905221724 68 0 0.0 0.0 0.00 0.00 0.00 60 922.9
20260905215657 68 0 0.0 0.0 0.00 0.00 0.00 60 922.9
20260905214649 68 0 0.0 0.0 0.00 0.00 0.00 58 922.9
20260905214646 68 0 0.0 0.0 0.00 0.00 0.00 58 922.8
20260905213542 68 0 0.0 0.0 0.00 0.00 0.00 60 922.8
20260905211505 68 0 0.0 0.0 0.00 0.00 0.00 57 922.6
20260905210452 68 0 0.0 0.0 0.00 0.00 0.00 60 922.7
20260905205440 68 0 0.0 0.0 0.00 0.00 0.00 60 922.6
20260905204417 68 0 0.0 0.0 0.00 0.00 0.00 56 922.5
20260905203353 68 0 0.0 0.0 0.00 0.00 0.00 60 922.7
20260905202314 68 0 0.0 0.0 0.00 0.00 0.00 60 922.5
20260905201304 68 0 0.0 0.0 0.00 0.00 0.00 57 922.6
20260905195219 68 0 0.0 0.0 0.00 0.00 0.00 59 922.4
20260905194205 69 0 0.0 0.0 0.00 0.00 0.00 59 922.5
20260905193123 68 0 0.0 0.0 0.00 0.00 0.00 60 922.3
20260905192119 68 0 0.0 0.0 0.00 0.00 0.00 58 922.4
20260905191110 68 0 0.0 0.0 0.00 0.00 0.00 60 922.3
20260905190113 68 0 0.0 0.0 0.00 0.00 0.00 60 922.1
20260905185059 68 0 0.0 0.0 0.00 0.00 0.00 57 922.1
20260905184105 68 0 0.0 0.0 0.00 0.00 0.00 61 922.0
20260905183057 68 0 0.0 0.0 0.00 0.00 0.00 60 921.7
20260905182044 68 0 0.0 0.0 0.00 0.00 0.00 56 921.8
20260905181036 68 0 0.0 0.0 0.00 0.00 0.00 60 921.7
20260905180019 68 0 0.0 0.0 0.00 0.00 0.00 60 921.6
20260905175006 68 0 0.0 0.0 0.00 0.00 0.00 56 921.5
20260905173959 68 0 0.0 0.0 0.00 0.00 0.00 61 921.3
20260905173957 68 0 0.0 0.0 0.00 0.00 0.00 61 921.3
20260905173955 68 0 0.0 0.0 0.00 0.00 0.00 61 921.4
20260905172934 68 0 0.0 0.0 0.00 0.00 0.00 58 921.2
20260905171906 69 0 0.0 0.0 0.00 0.00 0.00 60 921.3
20260905170907 68 0 0.0 0.0 0.00 0.00 0.00 60 921.3
20260905165853 68 0 0.0 0.0 0.00 0.00 0.00 57 921.3
20260905164840 68 0 0.0 0.0 0.00 0.00 0.00 61 921.5
20260905163837 68 0 0.0 0.0 0.00 0.00 0.00 60 921.6
20260905160727 68 0 0.0 0.0 0.00 0.00 0.00 59 921.5
20260905155705 69 0 0.0 0.0 0.00 0.00 0.00 61 921.5
20260905154648 68 0 0.0 0.0 0.00 0.00 0.00 61 921.5
20260905153604 68 0 0.0 0.0 0.00 0.00 0.00 57 921.5
20260905151528 68 0 0.0 0.0 0.00 0.00 0.00 60 921.4
20260905150446 69 0 0.0 0.0 0.00 0.00 0.00 60 921.5
20260905145448 68 0 0.0 0.0 0.00 0.00 0.00 61 921.4
20260905143434 69 0 0.0 0.0 0.00 0.00 0.00 61 921.4
20260905141409 68 0 0.0 0.0 0.00 0.00 0.00 56 921.2
20260905140342 68 0 0.0 0.0 0.00 0.00 0.00 60 921.0
20260905134319 69 0 0.0 0.0 0.00 0.00 0.00 60 921.1
20260905133323 68 0 0.0 0.0 0.00 0.00 0.00 60 921.0
20260905133321 68 0 0.0 0.0 0.00 0.00 0.00 60 921.0
20260905132246 68 0 0.0 0.0 0.00 0.00 0.00 56 921.0
20260905131229 68 0 0.0 0.0 0.00 0.00 0.00 60 920.9
20260905130217 68 0 0.0 0.0 0.00 0.00 0.00 59 921.0
20260905125205 69 0 0.0 0.0 0.00 0.00 0.00 60 921.0
20260905123053 68 0 0.0 0.0 0.00 0.00 0.00 57 920.9
20260905120953 68 0 0.0 0.0 0.00 0.00 0.00 58 921.0
20260905115940 69 0 0.0 0.0 0.00 0.00 0.00 60 921.1
20260905112837 68 0 0.0 0.0 0.00 0.00 0.00 60 920.8
20260905111813 68 0 0.0 0.0 0.00 0.00 0.00 57 920.7
20260905110722 68 0 0.0 0.0 0.00 0.00 0.00 60 920.7
20260905105649 68 0 0.0 0.0 0.00 0.00 0.00 59 920.7
20260905103556 68 0 0.0 0.0 0.00 0.00 0.00 60 920.5
20260905102545 68 0 0.0 0.0 0.00 0.00 0.00 58 920.6
20260905095401 69 0 0.0 0.0 0.00 0.00 0.00 60 920.6
20260905094416 68 0 0.0 0.0 0.00 0.00 0.00 60 920.5
20260905093331 68 0 0.0 0.0 0.00 0.00 0.00 57 920.3
20260905092321 68 0 0.0 0.0 0.00 0.00 0.00 60 920.2
20260905091304 68 0 0.0 0.0 0.00 0.00 0.00 59 920.2
20260905090216 69 0 0.0 0.0 0.00 0.00 0.00 60 920.1
20260905085204 68 0 0.0 0.0 0.00 0.00 0.00 60 920.1
20260905084106 68 0 0.0 0.0 0.00 0.00 0.00 57 920.2
20260905083112 68 0 0.0 0.0 0.00 0.00 0.00 60 920.0
20260905082040 68 0 0.0 0.0 0.00 0.00 0.00 59 919.9
20260905075904 68 0 0.0 0.0 0.00 0.00 0.00 60 920.0
20260905074834 68 0 0.0 0.0 0.00 0.00 0.00 58 919.7
20260905073812 68 0 0.0 0.0 0.00 0.00 0.00 60 919.2
20260905072749 68 0 0.0 0.0 0.00 0.00 0.00 59 919.1
20260905071722 69 0 0.0 0.0 0.00 0.00 0.00 58 919.3
20260905070707 68 0 0.0 0.0 0.00 0.00 0.00 60 919.0
20260905065653 68 0 0.0 0.0 0.00 0.00 0.00 58 918.9
20260905064645 68 0 0.0 0.0 0.00 0.00 0.00 60 918.5
20260905063629 68 0 0.0 0.0 0.00 0.00 0.00 60 918.2
20260905062551 68 0 0.0 0.0 0.00 0.00 0.00 56 918.2
20260905061558 68 0 0.0 0.0 0.00 0.00 0.00 60 918.5
20260905055543 68 0 0.0 0.0 0.00 0.00 0.00 60 918.9
20260905054504 68 0 0.0 0.0 0.00 0.00 0.00 59 918.9
20260905054502 68 0 0.0 0.0 0.00 0.00 0.00 59 918.8
20260905052415 68 0 0.0 0.0 0.00 0.00 0.00 60 918.9
20260905051416 68 0 0.0 0.0 0.00 0.00 0.00 56 918.6
20260905051414 68 0 0.0 0.0 0.00 0.00 0.00 56 918.7
20260905050406 68 0 0.0 0.0 0.00 0.00 0.00 60 918.5
20260905045349 68 0 0.0 0.0 0.00 0.00 0.00 57 918.4
20260905044348 68 0 0.0 0.0 0.00 0.00 0.00 60 918.4
20260905043336 68 0 0.0 0.0 0.00 0.00 0.00 58 918.2
20260905041328 68 0 0.0 0.0 0.00 0.00 0.00 59 917.9
20260905035300 68 0 0.0 0.0 0.00 0.00 0.00 60 917.7
20260905034236 68 0 0.0 0.0 0.00 0.00 0.00 56 917.5
20260905033236 68 0 0.0 0.0 0.00 0.00 0.00 60 917.4
20260905032224 68 0 0.0 0.0 0.00 0.00 0.00 56 917.3
20260905031227 68 0 0.0 0.0 0.00 0.00 0.00 60 917.2
20260905030212 68 0 0.0 0.0 0.00 0.00 0.00 57 917.0
20260905025147 68 0 0.0 0.0 0.00 0.00 0.00 59 916.9
20260905024124 68 0 0.0 0.0 0.00 0.00 0.00 57 916.7
20260905023046 68 0 0.0 0.0 0.00 0.00 0.00 59 916.8
20260905022023 68 0 0.0 0.0 0.00 0.00 0.00 57 916.6
20260905021025 68 0 0.0 0.0 0.00 0.00 0.00 60 916.6
20260905020016 68 0 0.0 0.0 0.00 0.00 0.00 57 916.5
20260905014944 68 0 0.0 0.0 0.00 0.00 0.00 60 916.5
20260905013933 68 0 0.0 0.0 0.00 0.00 0.00 57 916.4
20260905012855 68 0 0.0 0.0 0.00 0.00 0.00 60 916.6
20260905011831 68 0 0.0 0.0 0.00 0.00 0.00 57 916.4
20260905010820 68 0 0.0 0.0 0.00 0.00 0.00 60 916.5
20260905005752 68 0 0.0 0.0 0.00 0.00 0.00 57 916.4
20260905004729 68 0 0.0 0.0 0.00 0.00 0.00 60 916.3
20260905003717 68 0 0.0 0.0 0.00 0.00 0.00 56 916.4
20260905002707 68 0 0.0 0.0 0.00 0.00 0.00 60 916.5